STARLINK-1356, 45564

Orbit data source: Space-Track

STARLINK-1356, 45564 is a payload satellite owned by SpaceX/Seattle (US) in LEO that was launched on Wed, 22 Apr 2020 UTC via an FALCON 9 launch vehicle from the Air Force Eastern Test Range (AFETR). Payload-class satellites include a variety of spacecraft equipped with specific instruments for various scientific and technological missions. These include communications satellites like Starlink; space stations such as the ISS; scientific satellites like the Hubble; Earth observation satellites from companies like Planet Labs, Umbra, and HawkEye 360; GPS; miniature CubeSats for education and research; and military/defense satellites.

Loading next visibility...
Identifier
45564, 2020-025AK
Orbit
LEO
Country
Flag of USUS
Related business
Manufacturer
SpaceX/Seattle
Mission
Partially operational Commercial Communications
Bus & Motor
STARLINK, Unknown motor
Mass
260 kg wet, ~248 kg dry
Launch date (UTC)
2020-04-22 (6 years ago)
Launch vehicle
FALCON 9
Launch site
Air Force Eastern Test Range (AFETR)
Object type
Payload
Rocket body
Debris
Shape & HBR
Box + 1 Pan, 10.1 m
Radar Cross Section
13.562 m², Large (>1 m²)

Expand to show TLE details & history
Last TLE update: 13 hours ago

TLE from 13 hours ago
0 STARLINK-1356
1 45564U 20025AK  26170.41761950  .00040948  00000-0  39432-3 0  9991
2 45564  53.0433 302.8152 0001918 348.1739  11.9230 15.66144736341365
Epoch: 2026-06-19T10:01Z
TLE epoch observation values (Epoch: 2026-06-19T10:01:22.324Z)
Latitude
-0.00008°
Longitude
-115.17476°
Altitude
369.583 km
Speed
7.69 km/s
True Right ascension
20h 11m 15s
True Declination
0° 00' 00"
Sunlit
Object was in full shadow at epoch
Visualization orbit readout
Latitude
Unknown
Longitude
Unknown
Altitude
Unknown
Speed
Unknown
Apparent Right ascension
Unknown
Apparent Declination
Unknown
Sunlit
N/A
Visualization observer readout
Local Sidereal Time
09:51:44
Azimuth
Unknown
Elevation
Unknown
Doppler factor
Unknown
Orbital elements
Apogee altitude
371.522 km
Perigee altitude
368.934 km
Semi-major axis
6,748.365 km
Eccentricity
0.00019
Inclination
53.0433°
RAAN
302.8152°
Arg. of periapsis
348.1739°
True anomaly
11.92754°
Mean anomaly
11.923°
Eccentric anomaly
11.92527°
Mean motion
3.91512 °/min
Orbital period
91.95 mins
BSTAR
0.00039432
Loading maneuver chart data...
Computing Atmospheric mass density...

Documentation

Showing up to 5 results
|